Location: Bukit Lungun
(2.6833°N, 113.9667°E)
Time: 14:37:32
(UTC+00:00)

GPS 2-18 Rocket1 - Pass Details

Date: 02 March 2021
Orbit: 457 x 511 km, 20.9° (Epoch: 20 April)

Event Time Altitude Azimuth Distance (km) Brightness Sun altitude
Exits shadow 21:25:16 44° 249° (WSW) 653 3.3 -17.9°
Maximum altitude 21:26:21 89° 343° (NNW) 473 2.9 -17.6°
Drops below altitude 10° 21:30:08 10° 68° (ENE) 1,640 6.7 -16.7°
Sets 21:32:22 0° 68° (ENE) 2,528 7.8 -16.1°
